Flag for Bahamas Weather past 2 weeks in Freeport, Bahamas

Now
77 °F

Passing clouds.


Feels Like: 79 °F
Forecast: 78 / 85 °F
Wind: 3 mph from Southwest

Location: Palm Beach International Airport

Current Time: Apr 19, 2015 at 6:58:25 AM

Latest Report: Apr 19, 2015 at 5:53 AM


Visibility: 10 mi

Pressure: 29.94 "Hg

Humidity: 82%

Dew point: 71 °F

Location of FreeportLocation

Historic Weather in Freeport — Graph

°F

Freeport temperature yesterday

Maximum temperature yesterday: 92 °F (at 2:53 PM)
Minimum temperature yesterday: 74 °F (at 4:53 AM)
Average temperature yesterday: 81 °F

Past Weeks' High & Low Weather Summary

 TemperatureHumidityPressure
High92 °F (Apr 18, 2:53 PM)94% (Apr 16, 6:53 AM)30.27 "Hg (Apr 16, 6:53 AM)
Low66 °F (Apr 4, 5:53 AM)44% (Apr 18, 2:53 PM)29.91 "Hg (Apr 18, 5:53 PM)
Average79 °F72%30.08 "Hg
* Reported Apr 4 5:53 AM — Apr 19 5:53 AM, Freeport, Weather by CustomWeather, © 2015

Note: Actual official high and low records may vary slightly from our data, if they occured in-between our weather recording intervals... More about our weather records

Advertising

Freeport weather history for previous 24 hours

 ConditionsComfort  
Time TempWeatherWind HumidityBarometerVisibility
5:53 AM
Sun, Apr 19
77 °FPassing clouds.3 mph82%29.94 "Hg10 mi
4:53 AM77 °FPassing clouds.6 mph85%29.94 "Hg10 mi
3:53 AM77 °FPassing clouds.3 mph88%29.94 "Hg10 mi
2:53 AM76 °FPassing clouds.3 mph91%29.94 "Hg10 mi
1:53 AM76 °FPassing clouds.5 mph91%29.96 "Hg10 mi
12:53 AM76 °FPassing clouds.No wind88%29.98 "Hg10 mi
12:00 AM79 °FThunderstorms. Passing clouds.5 mph77%30.00 "Hg10 mi
10:53 PM
Sat, Apr 18
79 °FPassing clouds.7 mph77%30.00 "Hg10 mi
9:53 PM80 °FMostly cloudy.9 mph71%29.98 "Hg10 mi
8:53 PM81 °FPartly cloudy.9 mph69%29.96 "Hg10 mi
7:53 PM81 °FPartly sunny.12 mph72%29.93 "Hg10 mi
6:53 PM82 °FPartly sunny.13 mph70%29.92 "Hg10 mi
5:53 PM85 °FBroken clouds.13 mph59%29.91 "Hg10 mi
4:53 PM88 °FPartly sunny.15 mph54%29.91 "Hg10 mi
3:53 PM88 °FPartly sunny.9 mph52%29.92 "Hg10 mi
2:53 PM92 °FScattered clouds.13 mph44%29.95 "Hg10 mi
1:53 PM89 °FScattered clouds.10 mph48%29.98 "Hg10 mi
12:53 PM90 °FScattered clouds.12 mph52%29.99 "Hg10 mi
11:53 AM88 °FScattered clouds.12 mph57%30.00 "Hg10 mi
10:53 AM84 °FScattered clouds.12 mph65%30.01 "Hg10 mi
9:53 AM82 °FScattered clouds.9 mph70%30.01 "Hg10 mi
8:53 AM78 °FScattered clouds.8 mph82%30.01 "Hg10 mi
7:53 AM75 °FPassing clouds.8 mph90%30.00 "Hg10 mi
6:53 AM74 °FPassing clouds.5 mph91%30.01 "Hg10 mi
Weather by CustomWeather, © 2015

See weather overviewHow to use our weather pages